map of JDA home
Great Circle Mapper logo
JDA - Airport
Location
City:  John Day, Oregon, United States
Name:Grant Co. Regional/Ogilvie Field
ICAO / IATA:KGCD / JDA
FAA:GCD

Details
Type:Airport (Airfield)
Use:Public/Civil
Latitude:4424'10"N (44.402867)
Longitude:11858'04"W (-118.967882)
Datum:WGS 1984
Elevation:3703 ft (1129 m)
Runways:2
Longest:5220 × 60 ft (1591 × 18.5 m), paved

Time
Time Zone:UTC-8 (DST-7)
Local Time:

Weather
METAR:KGCD 030135Z AUTO 28010KT 10SM CLR 26/01 A2980 RMK AO2 T02570013

Related Locations
Nearby:
Farthest:FTU: 10882 mi / 17512 km
Tolagnaro [Maurillac (Fort Dauphin)], MG

Find:

   beyond  
but within

Other Information
Maps:
NOTAMs:
Links:
Sources:

  
flag of United States
flag of Oregon
  

Sectional Chart

Flight Planning
at skyvector.com

Satellite Image

Google Maps Satellite View

 

Copyright © 2004-2014 Karl L. Swartz. All rights reserved.
The Great Circle Mapper name and logo are trademarks of the Great Circle Mapper.
All other trademarks mentioned herein belong to their respective owners.
Please see credits for attibutions and further copyright information.

  Follow gcmap on Facebook Follow gcmap on Twitter

hCard Microformat

Geo Microformat